User: anonymous   Login
Location: Unspecified
(0.0000°N, 0.0000°E)
Time: 20:13:44
(UTC+02:00)
Language:

Iridium 47 - Orbit

View from above orbital plane
View from above orbital plane
View from above satellite
View from above satellite

Ground track
Ground track

The orbit data is extracted from the following two-line orbital elements,

1 25106U 97082C   18201.23621078  .00000136  00000-0  37823-4 0  9998
2 25106  86.4216  88.9450 0002208  79.8945 280.2502 14.38610360 77444
Epoch (UTC): 20 July 2018 05:40:08
Eccentricity: 0.0002208
inclination: 86.4216°
perigee height: 761 km
apogee height: 764 km
right ascension of ascending node: 88.9450°
argument of perigee: 79.8945°
revolutions per day: 14.38610360
mean anomaly at epoch: 280.2502°
orbit number at epoch: 7744

The dashed part of the orbit path shows where the satellite is in the earth's shadow,  

DLR